This demonstration page uses our WeatherBlox Daily Observations layout. Learn more.

Left ArrowRight Arrow

Hourly Observations for December 12, 2020

Temp ( °F °C ) Dew Point ( °F °C ) Humidity (%) Winds ( mph kmh ) Pressure ( in mb ) Visibility ( mi km ) Precip ( " mm )
12:54 am 00:54 Windy with Snow Likely 33 0.6 30 -1.1 89 89 N 20 31 29.93 1014 1.25 2.011675 0.02 0.508
1:01 am 01:01 Windy with Snow Likely 33 0.6 30 -1.1 89 89 N 20 31 29.96 1014 1.25 2.011675 0.001 0.001
1:09 am 01:09 Cloudy with Light Snow 33 0.6 30 -1.1 89 89 N 18 30 29.96 1014 1.25 2.011675 0.01 0.254
1:54 am 01:54 Windy with Snow Likely 32 0 30 -1.1 92 92 N 20 31 29.93 1014 1.5 2.41401 0.01 0.254
2:29 am 02:29 Windy with Snow Likely 32 0 29 -1.7 88 88 N 21 33 29.98 1015 2 3.21868 0.01 0.254
2:37 am 02:37 Windy with Snow Likely 32 0 28 -2.2 85 85 N 21 33 29.98 1015 1.75 2.816345 0.01 0.254
2:43 am 02:43 Windy with Snow Likely 32 0 29 -1.7 88 88 N 22 35 29.98 1015 2 3.21868 0.01 0.254
2:48 am 02:48 Windy with Snow Likely 32 0 28 -2 87 87 N 20 31 29.98 1015 2 3.21868 0.01 0.254
2:54 am 02:54 Windy with Snow Likely 32 0 29 -1.7 88 88 N 22 35 29.95 1014 2.5 4.02335 0.01 0.254
3:37 am 03:37 Windy with Snow Likely 31 -0.6 27 -2.8 85 85 N 22 35 29.99 1016 3 4.82802 0.001 0.001
3:54 am 03:54 Cloudy with Light Snow 31 -0.6 27 -2.8 85 85 N 18 30 29.96 1015 2.5 4.02335 0.001 0.001
4:29 am 04:29 Windy with Snow Likely 30 -1.1 27 -2.8 88 88 N 21 33 30.01 1016 3 4.82802 0.001 0.001
4:33 am 04:33 Windy with Snow Likely 30 -1.1 27 -2.8 88 88 N 21 33 30.01 1016 2.5 4.02335 0.001 0.001
4:43 am 04:43 Cloudy with Light Snow 30 -1.1 27 -2.8 88 88 N 18 30 30.02 1017 1.5 2.41401 0.001 0.001
4:51 am 04:51 Cloudy with Light Snow 30 -1 27 -3 86 86 N 18 30 30.02 1017 3 4.82802 0.001 0.001
4:54 am 04:54 Windy with Snow Likely 30 -1.1 27 -2.8 88 88 N 20 31 29.99 1016 3 4.82802 0.001 0.001
5:01 am 05:01 Windy with Snow Likely 30 -1.1 27 -2.8 88 88 N 21 33 30.02 1017 2 3.21868 0.001 0.001
5:03 am 05:03 Windy with Snow Likely 30 -1.1 27 -2.8 88 88 N 22 35 30.02 1017 1.75 2.816345 0.001 0.001
5:12 am 05:12 Windy with Snow Likely 30 -1.1 27 -2.8 88 88 N 20 31 30.03 1017 2 3.21868 0.001 0.001
5:22 am 05:22 Cloudy with Light Snow 30 -1.1 27 -2.8 88 88 N 18 30 30.04 1017 2 3.21868 0.001 0.001
5:29 am 05:29 Cloudy with Light Snow 30 -1.1 27 -2.8 88 88 N 18 30 30.04 1017 1.75 2.816345 0.001 0.001
5:43 am 05:43 Windy with Snow Likely 30 -1.1 27 -2.8 88 88 N 20 31 30.04 1017 2 3.21868 0.001 0.001
5:54 am 05:54 Cloudy with Light Snow 30 -1.1 26 -3.3 85 85 N 18 30 30.03 1017 2.5 4.02335 0.001 0.001
6:37 am 06:37 Cloudy with Haze 30 -1.1 25 -3.9 82 82 N 22 35 30.09 1019 2.5 4.02335 0.001 0.001
6:54 am 06:54 Cloudy with Haze 30 -1.1 25 -3.9 82 82 N 20 31 30.05 1018 2.5 4.02335 0.001 0.001
7:40 am 07:40 Cloudy 30 -1.1 25 -3.9 82 82 N 23 37 30.1 1019 10 16.0934 0 0
7:54 am 07:54 Cloudy 30 -1.1 25 -3.9 82 82 N 23 37 30.06 1018 10 16.0934 0 0
8:25 am 08:25 Cloudy 30 -1.1 25 -3.9 82 82 N 21 33 30.12 1020 10 16.0934 0 0
8:54 am 08:54 Cloudy 29 -1.7 24 -4.4 82 82 N 22 35 30.1 1019 10 16.0934 0 0
9:54 am 09:54 Cloudy 29 -1.7 24 -4.4 82 82 N 18 30 30.1 1019 10 16.0934 0 0
10:54 am 10:54 Cloudy 30 -1.1 24 -4.4 79 79 N 18 30 30.1 1019 10 16.0934 0 0
11:24 am 11:24 Mostly Cloudy 29 -1.7 23 -5 78 78 N 20 31 30.13 1020 10 16.0934 0 0
11:43 am 11:43 Cloudy 29 -1.7 23 -5 78 78 N 18 30 30.13 1020 10 16.0934 0 0
11:54 am 11:54 Cloudy 29 -1.7 23 -5 78 78 N 17 28 30.09 1019 10 16.0934 0 0
12:13 pm 12:13 Mostly Cloudy 30 -1.1 23 -5 75 75 N 17 28 30.13 1020 10 16.0934 0 0
12:34 pm 12:34 Mostly Cloudy 30 -1.1 23 -5 75 75 N 14 22 30.13 1020 10 16.0934 0 0
12:54 pm 12:54 Mostly Cloudy 30 -1.1 24 -4.4 79 79 N 14 22 30.08 1019 10 16.0934 0 0
1:43 pm 13:43 Mostly Cloudy 31 -0.6 24 -4.4 76 76 N 13 20 30.14 1021 10 16.0934 0 0
1:54 pm 13:54 Mostly Cloudy 31 -0.6 24 -4.4 76 76 N 8 13 30.11 1020 10 16.0934 0 0
2:54 pm 14:54 Cloudy 31 -0.6 24 -4.4 76 76 NNW 10 17 30.12 1020 10 16.0934 0 0
3:36 pm 15:36 Partly Cloudy 30 -1.1 23 -5 75 75 N 12 19 30.16 1021 10 16.0934 0 0
3:54 pm 15:54 Partly Cloudy 30 -1.1 23 -5 75 75 N 10 17 30.14 1021 10 16.0934 0 0
4:54 pm 16:54 Partly Cloudy 28 -2.2 22 -5.6 78 78 N 5 7 30.14 1021 10 16.0934 0 0
5:54 pm 17:54 Clear 23 -5 20 -6.7 88 88 Calm 30.16 1021 10 16.0934 0 0
6:54 pm 18:54 Clear 22 -5.6 19 -7.2 89 89 Calm 30.16 1022 10 16.0934 0 0
7:54 pm 19:54 Clear 22 -5.6 19 -7.2 89 89 N 6 9 30.18 1022 10 16.0934 0 0
8:54 pm 20:54 Clear 23 -5 20 -6.7 88 88 WNW 3 6 30.21 1023 10 16.0934 0 0
9:54 pm 21:54 Clear 18 -7.8 15 -9.4 88 88 NNW 5 7 30.24 1024 10 16.0934 0 0
10:54 pm 22:54 Clear 23 -5 19 -7.2 85 85 NW 5 7 30.25 1024 10 16.0934 0 0
11:54 pm 23:54 Clear 18 -7.8 15 -9.4 88 88 NNE 8 13 30.24 1024 10 16.0934 0 0

Powered by AerisWeather